Location: Observatorio Ernesto Juarez Davis
(29.2175°N, 110.7606°W)
Time: 08:33:04
(UTC-07:00)

Hubble Space Telescope - Pass Details

Date: 27 July 2019
Orbit: 536 x 540 km, 28.5° (Epoch: 20 August)

Event Time Altitude Azimuth Distance (km) Brightness Sun altitude
Exits shadow 04:52:03 14° 234° (SW) 1,527 2.4 -10.4°
Maximum altitude 04:55:18 45° 164° (SSE) 734 1.4 -9.7°
Drops below altitude 10° 04:59:15 10° 91° (E) 1,783 4.5 -9.0°
Sets 05:01:34 0° 85° (E) 2,674 5.7 -8.5°
